ONEWEB-0051, 45155

Orbit data source: Space-Track

ONEWEB-0051, 45155 is a payload satellite owned by One Web (UK) in LEO that was launched on Thu, 06 Feb 2020 UTC via a SOYUZ-2-1B launch vehicle from the Tyuratam Missile And Space Complex (TTMTR). Payloads include a variety of satellites, spacecraft, and rockets equipped with specific instruments for various scientific and technological missions. These include communications satellites like Starlink; space stations such as the ISS; scientific satellites like the Hubble; Earth observation satellites from companies like Planet Labs, Umbra, and HawkEye 360; GPS; miniature CubeSats for education and research; and military/defense satellites.

Loading next visibility...
ONEWEB-0051 details
Identifier
45155, 2020-008AA
Orbit
LEO
Last TLE update1 day ago
Origin
Flag of UKOne Web (UK)
ManufacturerOne Web
MissionOperational Commercial Communications
Bus & MotorARROW, Unknown motor
Mass148 kg wet, ~140 kg dry
Launch date (UTC)
2020-02-06 (5 years ago)
Launch vehicle
SOYUZ-2-1B
Launch site
Tyuratam Missile And Space Complex (TTMTR)
Object type
Payload
Rocket body
Debris
Shape & HBRTrap Box + 2 Pan, 5 m
Radar Cross Section2.957 m², Large (>1 m²)

Expand to show TLE details & history

TLE from 1 day ago
0 ONEWEB-0051
1 45155U 20008AA  24360.43046770  .00000561  00000-0  15482-2 0  9990
2 45155  87.8903 128.4418 0001423 109.7659 250.3623 13.11418560240470
Epoch: 2024-12-25T10:19Z
Definitive object data (Epoch: 2024-12-25T10:19:52.409Z)
Latitude0.00004°
Longitude-120.95089°
Altitude1,220.929 km
Speed7.244 km/s
True Right ascension08h 33m 46s
True Declination0° 00' 00"
Sunlit
Object was in full shadow at TLE epoch
Visualization TLE readout
Latitude7.64303°
Longitude-120.8665°
Altitude1,220.073 km
Speed7.245 km/s
Apparent Right ascension06h 59m 45s
Apparent Declination-45° 14' 45"
Sunlit
Object is in full shadow
Visualization observer readout
Local Sidereal Time09:31:36
Azimuth205.677° SW
Elevation-1.714°
Doppler factor1
Orbital elements
Apogee altitude1,215.875 km
Perigee altitude1,213.714 km
Semi-major axis7,592.932 km
Eccentricity0.0001423
Inclination87.8903°
RAAN128.4418°
Arg. of periapsis109.7659°
True anomaly250.34694°
Mean anomaly250.3623°
Eccentric anomaly250.35462°
Mean motion3.28042 °/min
BSTAR0.0015482
Orbital period109.74 mins
Loading maneuver chart data...
Loading historical data...
Loading historical data...
Loading historical data...
Loading historical data...
Loading historical data...
Loading historical data...
Loading historical data...

ONEWEB-0051 Visibility forecast

Observer location: undefined°, undefined

Span
Click to sort rows by Start time (UTC) header in descending order
Start Az.
Max El. time (UTC)
Max El. Az.
Max El.
End time (UTC)
End Az.
12 mins2024-12-26 10:14:28.030Z217.959° SW2024-12-26 10:20:28.030Z277.561° WNW29.474°2024-12-26 10:26:28.030Z340.041° N
11 mins2024-12-26 19:54:28.030Z22.585° NE2024-12-26 19:59:28.030Z73.711° E28.921°2024-12-26 20:05:28.030Z138.776° SSE
12 mins2024-12-26 21:44:28.030Z340.96° N2024-12-26 21:49:28.030Z285.821° WNW34.193°2024-12-26 21:56:28.030Z210.649° SW
12 mins2024-12-27 08:13:28.030Z140.359° SSE2024-12-27 08:19:28.030Z72.148° E31.275°2024-12-27 08:25:28.030Z16.889° NNE
7 mins2024-12-27 10:03:28.030Z217.6° SW2024-12-27 10:08:28.030Z272.417° WNW31.834°2024-12-27 10:10:28.030Z306.345° NW
|